,,,PA_Meas_PMT16A,,PR_Meas_QMR101_102,,RH_Meas_QMH101,,SR_Meas_QMS101,,TA_Meas_QMH101,,GenWind,,GenWind,
date,time,status,PA,status,PR,status,RH,status,SR,status,TA,status,DirAvg,status,SpdAvg,
2009-10-07, 00:00:04,VALID,999.43,VALID,0,VALID,89.2513,VALID,0,VALID,24.111,VALID,33,VALID,0.687109,
2009-10-07, 00:01:04,VALID,999.426,VALID,0,VALID,89.1979,VALID,0,VALID,24.111,VALID,44,VALID,0.985547,
2009-10-07, 00:02:04,VALID,999.424,VALID,0,VALID,89.1292,VALID,0,VALID,24.111,VALID,47,VALID,0.916016,
2009-10-07, 00:03:04,VALID,999.431,VALID,0,VALID,89.2055,VALID,0,VALID,24.1305,VALID,60,VALID,0.940234,
2009-10-07, 00:04:04,VALID,999.442,VALID,0,VALID,89.3657,VALID,0,VALID,24.1305,VALID,63,VALID,1.025,
2009-10-07, 00:05:04,VALID,999.442,VALID,0,VALID,89.5107,VALID,0,VALID,24.1305,VALID,77,VALID,1.0543,
2009-10-07, 00:06:04,VALID,999.467,VALID,0,VALID,89.5565,VALID,0,VALID,24.1324,VALID,82,VALID,0.779688,
2009-10-07, 00:07:04,VALID,999.465,VALID,0,VALID,89.6938,VALID,0,VALID,24.0915,VALID,82,VALID,0.653516,
2009-10-07, 00:08:04,VALID,999.441,VALID,0,VALID,89.8083,VALID,0,VALID,24.072,VALID,83,VALID,0.684766,
2009-10-07, 00:09:04,VALID,999.479,VALID,0,VALID,89.938,VALID,0,VALID,24.0525,VALID,83,VALID,0.669141,
2009-10-07, 00:10:04,VALID,999.437,VALID,0,VALID,90.0982,VALID,0,VALID,24.0525,VALID,82,VALID,0.755469,
2009-10-07, 00:11:04,VALID,999.466,VALID,0,VALID,90.0982,VALID,0,VALID,24.0329,VALID,74,VALID,0.736328,
2009-10-07, 00:12:04,VALID,999.475,VALID,0,VALID,90.1516,VALID,0,VALID,24.0329,VALID,74,VALID,0.569141,
2009-10-07, 00:13:04,VALID,999.457,VALID,0,VALID,90.1897,VALID,0,VALID,24.0134,VALID,76,VALID,0.358984,
2009-10-07, 00:14:04,VALID,999.461,VALID,0,VALID,90.2203,VALID,0,VALID,24.0134,VALID,76,VALID,0,
2009-10-07, 00:15:04,VALID,999.487,VALID,0,VALID,90.266,VALID,0,VALID,23.9939,VALID,76,VALID,0.0117188,
2009-10-07, 00:16:04,VALID,999.438,VALID,0,VALID,90.3576,VALID,0,VALID,23.9939,VALID,76,VALID,0,
2009-10-07, 00:17:04,VALID,999.466,VALID,0,VALID,90.3881,VALID,0,VALID,24.0134,VALID,76,VALID,0,
2009-10-07, 00:18:04,VALID,999.419,VALID,0,VALID,90.4186,VALID,0,VALID,23.9939,VALID,76,VALID,0,
2009-10-07, 00:19:04,VALID,999.415,VALID,0,VALID,90.3347,VALID,0,VALID,23.9744,VALID,76,VALID,0,
2009-10-07, 00:20:04,VALID,999.38,VALID,0,VALID,90.4186,VALID,0,VALID,23.9744,VALID,76,VALID,0,
2009-10-07, 00:21:04,VALID,999.348,VALID,0,VALID,90.2431,VALID,0,VALID,23.9354,VALID,32,VALID,0.585938,
2009-10-07, 00:22:04,VALID,999.33,VALID,0,VALID,90.1592,VALID,0,VALID,23.9354,VALID,32,VALID,0.492578,
2009-10-07, 00:23:04,VALID,999.311,VALID,0,VALID,90.1592,VALID,0,VALID,23.9549,VALID,32,VALID,0.314453,
2009-10-07, 00:24:04,VALID,999.262,VALID,0,VALID,90.0066,VALID,0,VALID,23.9354,VALID,32,VALID,0.444922,
2009-10-07, 00:25:04,VALID,999.281,VALID,0,VALID,89.9837,VALID,0,VALID,23.9549,VALID,2,VALID,0.528906,
2009-10-07, 00:26:04,VALID,999.241,VALID,0,VALID,89.8388,VALID,0,VALID,23.9354,VALID,2,VALID,0.312891,
2009-10-07, 00:27:04,VALID,999.249,VALID,0,VALID,89.8083,VALID,0,VALID,23.9549,VALID,2,VALID,0.151953,
2009-10-07, 00:28:04,VALID,999.245,VALID,0,VALID,89.7854,VALID,0,VALID,23.9957,VALID,2,VALID,0,
2009-10-07, 00:29:04,VALID,999.268,VALID,0,VALID,89.7701,VALID,0,VALID,23.9549,VALID,2,VALID,0,
2009-10-07, 00:30:04,VALID,999.238,VALID,0,VALID,89.7396,VALID,0,VALID,23.9354,VALID,2,VALID,0.171875,
2009-10-07, 00:31:04,VALID,999.238,VALID,0,VALID,89.854,VALID,0,VALID,23.9159,VALID,2,VALID,0.253906,
2009-10-07, 00:32:04,VALID,999.246,VALID,0,VALID,89.9074,VALID,0,VALID,23.8963,VALID,2,VALID,0,
2009-10-07, 00:33:04,VALID,999.249,VALID,0,VALID,90.0219,VALID,0,VALID,23.8768,VALID,2,VALID,0,
2009-10-07, 00:34:04,VALID,999.261,VALID,0,VALID,90.0829,VALID,0,VALID,23.8768,VALID,2,VALID,0.00507812,
2009-10-07, 00:35:04,VALID,999.272,VALID,0,VALID,90.0982,VALID,0,VALID,23.8573,VALID,2,VALID,0.529297,
2009-10-07, 00:36:04,VALID,999.266,VALID,0,VALID,90.1974,VALID,0,VALID,23.8573,VALID,2,VALID,0.224609,
2009-10-07, 00:37:04,VALID,999.24,VALID,0,VALID,90.1821,VALID,0,VALID,23.8768,VALID,2,VALID,0.75625,
2009-10-07, 00:38:04,VALID,999.246,VALID,0,VALID,90.0371,VALID,0,VALID,23.8573,VALID,2,VALID,0.628516,
2009-10-07, 00:39:04,VALID,999.238,VALID,0,VALID,89.9074,VALID,0,VALID,23.8573,VALID,2,VALID,0.707422,
2009-10-07, 00:40:04,VALID,999.261,VALID,0,VALID,89.8311,VALID,0,VALID,23.8786,VALID,2,VALID,0.697656,
2009-10-07, 00:41:04,VALID,999.252,VALID,0,VALID,89.793,VALID,0,VALID,23.8183,VALID,360,VALID,0.800391,
2009-10-07, 00:42:04,VALID,999.267,VALID,0,VALID,89.854,VALID,0,VALID,23.8183,VALID,345,VALID,0.618359,
2009-10-07, 00:43:04,VALID,999.251,VALID,0,VALID,89.8998,VALID,0,VALID,23.7988,VALID,345,VALID,0.484766,
2009-10-07, 00:44:04,VALID,999.257,VALID,0,VALID,89.8998,VALID,0,VALID,23.7793,VALID,345,VALID,0.626953,
2009-10-07, 00:45:04,VALID,999.224,VALID,0,VALID,89.9914,VALID,0,VALID,23.7793,VALID,291,VALID,0.8,
2009-10-07, 00:46:04,VALID,999.179,VALID,0,VALID,90.0219,VALID,0,VALID,23.7597,VALID,293,VALID,0.671875,
2009-10-07, 00:47:04,VALID,999.209,VALID,0,VALID,90.0753,VALID,0,VALID,23.7597,VALID,298,VALID,0.557031,
2009-10-07, 00:48:04,VALID,999.202,VALID,0,VALID,90.0143,VALID,0,VALID,23.7793,VALID,298,VALID,0.7125,
2009-10-07, 00:49:04,VALID,999.191,VALID,0,VALID,90.0066,VALID,0,VALID,23.8396,VALID,298,VALID,0.510156,
2009-10-07, 00:50:04,VALID,999.17,VALID,0,VALID,89.8617,VALID,0,VALID,23.8378,VALID,298,VALID,0.384375,
2009-10-07, 00:51:04,VALID,999.089,VALID,0,VALID,89.7396,VALID,0,VALID,23.8378,VALID,298,VALID,0.467187,
2009-10-07, 00:52:04,VALID,999.11,VALID,0,VALID,89.6404,VALID,0,VALID,23.8378,VALID,298,VALID,0.359766,
2009-10-07, 00:53:04,VALID,999.136,VALID,0,VALID,89.5641,VALID,0,VALID,23.8183,VALID,298,VALID,0.285547,
2009-10-07, 00:54:04,VALID,999.07,VALID,0,VALID,89.587,VALID,0,VALID,23.8183,VALID,298,VALID,0.480469,
2009-10-07, 00:55:04,VALID,999.1,VALID,0,VALID,89.2894,VALID,0,VALID,23.8183,VALID,298,VALID,0.0933594,
2009-10-07, 00:56:04,VALID,999.078,VALID,0,VALID,89.3047,VALID,0,VALID,23.7793,VALID,298,VALID,0,
2009-10-07, 00:57:04,VALID,999.089,VALID,0,VALID,89.3352,VALID,0,VALID,23.7402,VALID,298,VALID,0,
2009-10-07, 00:58:04,VALID,999.055,VALID,0,VALID,89.4726,VALID,0,VALID,23.7207,VALID,298,VALID,0,
2009-10-07, 00:59:04,VALID,999.053,VALID,0,VALID,89.5489,VALID,0,VALID,23.6994,VALID,298,VALID,0.141797,
2009-10-07, 01:00:04,VALID,999.041,VALID,0,VALID,89.6404,VALID,0.112286,VALID,23.6994,VALID,298,VALID,0.314844,
2009-10-07, 01:01:04,VALID,999.052,VALID,0,VALID,89.5107,VALID,0,VALID,23.6994,VALID,298,VALID,0.0773437,
2009-10-07, 01:02:04,VALID,999.056,VALID,0,VALID,89.3963,VALID,0.112286,VALID,23.6994,VALID,298,VALID,0.339844,
2009-10-07, 01:03:04,VALID,999.028,VALID,0,VALID,88.9995,VALID,0,VALID,23.7171,VALID,81,VALID,0.723047,
2009-10-07, 01:04:04,VALID,999.053,VALID,0,VALID,88.1755,VALID,0,VALID,23.8165,VALID,116,VALID,0.534766,
2009-10-07, 01:05:04,VALID,999.015,VALID,0,VALID,88.084,VALID,0,VALID,23.875,VALID,74,VALID,1.16172,
2009-10-07, 01:06:04,VALID,998.987,VALID,0,VALID,87.7254,VALID,0.112286,VALID,23.9531,VALID,67,VALID,1.69883,
2009-10-07, 01:07:04,VALID,999.049,VALID,0,VALID,87.5499,VALID,0.112286,VALID,23.9336,VALID,147,VALID,1.41641,
2009-10-07, 01:08:04,VALID,999.018,VALID,0,VALID,87.6872,VALID,0.112286,VALID,23.8945,VALID,104,VALID,1.0125,
2009-10-07, 01:09:04,VALID,999.017,VALID,0,VALID,88.1374,VALID,0.112286,VALID,23.836,VALID,105,VALID,0.808594,
2009-10-07, 01:10:04,VALID,999.015,VALID,0,VALID,88.6714,VALID,0.112286,VALID,23.7775,VALID,103,VALID,0.503125,
2009-10-07, 01:11:04,VALID,998.96,VALID,0,VALID,88.8011,VALID,0.112286,VALID,23.7189,VALID,103,VALID,0.361328,
2009-10-07, 01:12:04,VALID,998.974,VALID,0,VALID,88.9919,VALID,0.112286,VALID,23.6604,VALID,103,VALID,0.507031,
2009-10-07, 01:13:04,VALID,998.922,VALID,0,VALID,89.6709,VALID,0,VALID,23.5823,VALID,85,VALID,1.04102,
2009-10-07, 01:14:04,VALID,998.922,VALID,0,VALID,89.587,VALID,0,VALID,23.5628,VALID,85,VALID,0.899219,
2009-10-07, 01:15:04,VALID,998.929,VALID,0,VALID,89.4726,VALID,0,VALID,23.5238,VALID,78,VALID,0.251172,
2009-10-07, 01:16:04,VALID,998.914,VALID,0,VALID,89.5107,VALID,0,VALID,23.4848,VALID,53,VALID,0.38125,
2009-10-07, 01:17:04,VALID,998.885,VALID,0,VALID,89.8006,VALID,0.112286,VALID,23.4848,VALID,320,VALID,0.629687,
2009-10-07, 01:18:04,VALID,998.864,VALID,0,VALID,89.9532,VALID,0.112286,VALID,23.4848,VALID,315,VALID,0.675781,
2009-10-07, 01:19:04,VALID,998.909,VALID,0,VALID,90.0066,VALID,0.112286,VALID,23.4653,VALID,315,VALID,0.499609,
2009-10-07, 01:20:04,VALID,998.901,VALID,0,VALID,90.0906,VALID,0.112286,VALID,23.4848,VALID,315,VALID,0.628125,
2009-10-07, 01:21:04,VALID,998.889,VALID,0,VALID,90.0677,VALID,0,VALID,23.4848,VALID,316,VALID,0.597266,
2009-10-07, 01:22:04,VALID,998.935,VALID,0,VALID,90.0143,VALID,0,VALID,23.4866,VALID,334,VALID,0.629297,
2009-10-07, 01:23:04,VALID,998.939,VALID,0,VALID,89.9685,VALID,0,VALID,23.5061,VALID,334,VALID,0.505859,
2009-10-07, 01:24:04,VALID,998.917,VALID,0,VALID,89.8846,VALID,0,VALID,23.5274,VALID,345,VALID,0.783984,
2009-10-07, 01:25:04,VALID,998.937,VALID,0,VALID,89.938,VALID,0,VALID,23.5274,VALID,357,VALID,1.18047,
2009-10-07, 01:26:04,VALID,998.929,VALID,0,VALID,89.8388,VALID,0,VALID,23.5256,VALID,357,VALID,0.869141,
2009-10-07, 01:27:04,VALID,998.901,VALID,0,VALID,89.7167,VALID,0,VALID,23.5043,VALID,357,VALID,0.645312,
2009-10-07, 01:28:04,VALID,998.858,VALID,0,VALID,89.6938,VALID,0,VALID,23.4671,VALID,357,VALID,0.733594,
2009-10-07, 01:29:04,VALID,998.805,VALID,0,VALID,89.8464,VALID,0,VALID,23.4475,VALID,357,VALID,0.445313,
2009-10-07, 01:30:04,VALID,998.79,VALID,0,VALID,89.8617,VALID,0,VALID,23.3695,VALID,357,VALID,0.607031,
2009-10-07, 01:31:04,VALID,998.769,VALID,0,VALID,90.2737,VALID,0,VALID,23.35,VALID,31,VALID,1.00312,
2009-10-07, 01:32:04,VALID,998.763,VALID,0,VALID,90.1058,VALID,0,VALID,23.3713,VALID,35,VALID,1.49492,
2009-10-07, 01:33:04,VALID,998.735,VALID,0,VALID,89.7243,VALID,0,VALID,23.2915,VALID,45,VALID,1.01016,
2009-10-07, 01:34:04,VALID,998.711,VALID,0,VALID,89.7472,VALID,0,VALID,23.2134,VALID,42,VALID,0.950781,
2009-10-07, 01:35:04,VALID,998.689,VALID,0,VALID,90.2889,VALID,0,VALID,23.1354,VALID,34,VALID,1.06172,
2009-10-07, 01:36:04,VALID,998.668,VALID,0,VALID,90.472,VALID,0,VALID,23.1176,VALID,182,VALID,0.557813,
2009-10-07, 01:37:04,VALID,998.649,VALID,0,VALID,91.0137,VALID,0,VALID,23.0964,VALID,40,VALID,0.851563,
2009-10-07, 01:38:04,VALID,998.631,VALID,0,VALID,91.1206,VALID,0,VALID,23.1159,VALID,33,VALID,0.901953,
2009-10-07, 01:39:04,VALID,998.605,VALID,0,VALID,91.0977,VALID,0,VALID,23.1159,VALID,8,VALID,0.7375,
2009-10-07, 01:40:04,VALID,998.587,VALID,0,VALID,90.9603,VALID,0,VALID,23.0556,VALID,360,VALID,0.835547,
2009-10-07, 01:41:04,VALID,998.573,VALID,0,VALID,91.0748,VALID,0,VALID,23.0573,VALID,7,VALID,0.906641,
2009-10-07, 01:42:04,VALID,998.59,VALID,0,VALID,91.1206,VALID,0,VALID,23.0573,VALID,15,VALID,0.916797,
2009-10-07, 01:43:04,VALID,998.606,VALID,0,VALID,91.029,VALID,0,VALID,23.0183,VALID,32,VALID,1.01367,
2009-10-07, 01:44:04,VALID,998.601,VALID,0,VALID,90.9985,VALID,0.112286,VALID,22.9971,VALID,42,VALID,1.22383,
2009-10-07, 01:45:04,VALID,998.579,VALID,0,VALID,91.1816,VALID,0.112286,VALID,22.9971,VALID,42,VALID,0.907031,
2009-10-07, 01:46:04,VALID,998.579,VALID,0,VALID,91.4334,VALID,0,VALID,23.0183,VALID,41,VALID,0.691016,
2009-10-07, 01:47:04,VALID,998.549,VALID,0,VALID,91.441,VALID,0.112286,VALID,23.0361,VALID,41,VALID,0.386719,
2009-10-07, 01:48:04,VALID,998.527,VALID,0,VALID,91.2808,VALID,0.112286,VALID,22.9971,VALID,41,VALID,0.331641,
2009-10-07, 01:49:04,VALID,998.487,VALID,0,VALID,91.3876,VALID,0.112286,VALID,22.9971,VALID,40,VALID,0.454688,
2009-10-07, 01:50:04,VALID,998.512,VALID,0,VALID,91.4334,VALID,0.112286,VALID,22.9776,VALID,11,VALID,0.40625,
2009-10-07, 01:51:04,VALID,998.474,VALID,0,VALID,91.5478,VALID,0.112286,VALID,22.9776,VALID,11,VALID,0.406641,
2009-10-07, 01:52:04,VALID,998.432,VALID,0,VALID,91.5097,VALID,0.112286,VALID,22.9581,VALID,11,VALID,0.0214844,
2009-10-07, 01:53:04,VALID,998.434,VALID,0,VALID,91.5326,VALID,0,VALID,22.9385,VALID,11,VALID,0.121094,
2009-10-07, 01:54:04,VALID,998.41,VALID,0,VALID,91.502,VALID,0,VALID,22.919,VALID,11,VALID,0,
2009-10-07, 01:55:04,VALID,998.402,VALID,0,VALID,91.5936,VALID,0,VALID,22.8995,VALID,79,VALID,0.766797,
2009-10-07, 01:56:04,VALID,998.415,VALID,0,VALID,91.8454,VALID,0,VALID,22.919,VALID,79,VALID,0.735547,
2009-10-07, 01:57:04,VALID,998.368,VALID,0,VALID,91.8225,VALID,0,VALID,22.9385,VALID,79,VALID,0.522266,
2009-10-07, 01:58:04,VALID,998.332,VALID,0,VALID,92.0361,VALID,0,VALID,22.9598,VALID,69,VALID,0.642578,
2009-10-07, 01:59:04,VALID,998.355,VALID,0,VALID,92.1811,VALID,0,VALID,23.0006,VALID,53,VALID,0.806641,
2009-10-07, 02:00:04,VALID,998.369,VALID,0,VALID,92.0819,VALID,0,VALID,23.0183,VALID,47,VALID,0.798828,
2009-10-07, 02:01:04,VALID,998.368,VALID,0,VALID,91.8835,VALID,0,VALID,23.0378,VALID,47,VALID,0.349219,
2009-10-07, 02:02:04,VALID,998.383,VALID,0,VALID,91.5783,VALID,0,VALID,22.9988,VALID,47,VALID,0.535937,
2009-10-07, 02:03:04,VALID,998.401,VALID,0,VALID,91.4486,VALID,0,VALID,22.9598,VALID,47,VALID,0.251172,
2009-10-07, 02:04:04,VALID,998.37,VALID,0,VALID,91.6928,VALID,0,VALID,22.9403,VALID,347,VALID,0.823438,
2009-10-07, 02:05:04,VALID,998.39,VALID,0,VALID,91.647,VALID,0,VALID,22.9403,VALID,347,VALID,0.519141,
2009-10-07, 02:06:04,VALID,998.374,VALID,0,VALID,91.647,VALID,0,VALID,22.9208,VALID,347,VALID,0.920703,
2009-10-07, 02:07:04,VALID,998.369,VALID,0,VALID,91.6012,VALID,0,VALID,22.8623,VALID,339,VALID,0.740234,
2009-10-07, 02:08:04,VALID,998.361,VALID,0,VALID,91.8835,VALID,0,VALID,22.8818,VALID,339,VALID,0.533203,
2009-10-07, 02:09:04,VALID,998.356,VALID,0,VALID,91.8225,VALID,0,VALID,22.8818,VALID,339,VALID,0.823828,
2009-10-07, 02:10:04,VALID,998.359,VALID,0,VALID,91.9369,VALID,0,VALID,22.9013,VALID,339,VALID,0.906641,
2009-10-07, 02:11:04,VALID,998.337,VALID,0,VALID,91.708,VALID,0,VALID,22.8818,VALID,339,VALID,0.467969,
2009-10-07, 02:12:04,VALID,998.335,VALID,0,VALID,91.6699,VALID,0,VALID,22.8835,VALID,339,VALID,0.585938,
2009-10-07, 02:13:04,VALID,998.302,VALID,0,VALID,91.2655,VALID,0,VALID,22.7842,VALID,339,VALID,0.433594,
2009-10-07, 02:14:04,VALID,998.285,VALID,0,VALID,91.7004,VALID,0,VALID,22.7647,VALID,40,VALID,0.785937,
2009-10-07, 02:15:04,VALID,998.267,VALID,0,VALID,91.4486,VALID,0,VALID,22.7469,VALID,74,VALID,0.744531,
2009-10-07, 02:16:04,VALID,998.23,VALID,0,VALID,91.586,VALID,0,VALID,22.6867,VALID,49,VALID,0.974219,
2009-10-07, 02:17:04,VALID,998.214,VALID,0,VALID,91.8377,VALID,0,VALID,22.7274,VALID,44,VALID,1.10625,
2009-10-07, 02:18:04,VALID,998.195,VALID,0,VALID,91.9064,VALID,0,VALID,22.7062,VALID,49,VALID,1.14258,
2009-10-07, 02:19:04,VALID,998.201,VALID,0,VALID,92.0666,VALID,0,VALID,22.7452,VALID,51,VALID,1.04727,
2009-10-07, 02:20:04,VALID,998.134,VALID,0,VALID,91.9827,VALID,0,VALID,22.7664,VALID,45,VALID,1.34883,
2009-10-07, 02:21:04,VALID,998.146,VALID,0,VALID,91.9522,VALID,0,VALID,22.7452,VALID,67,VALID,1.55195,
2009-10-07, 02:22:04,VALID,998.122,VALID,0,VALID,92.0132,VALID,0,VALID,22.7842,VALID,67,VALID,1.64805,
2009-10-07, 02:23:04,VALID,998.125,VALID,0,VALID,91.7843,VALID,0,VALID,22.7647,VALID,66,VALID,1.29883,
2009-10-07, 02:24:04,VALID,998.1,VALID,0,VALID,91.8683,VALID,0,VALID,22.7647,VALID,59,VALID,1.63945,
2009-10-07, 02:25:04,VALID,998.105,VALID,0,VALID,91.9064,VALID,0,VALID,22.786,VALID,68,VALID,1.43711,
2009-10-07, 02:26:04,VALID,998.102,VALID,0,VALID,91.998,VALID,0,VALID,22.7452,VALID,60,VALID,1.38945,
2009-10-07, 02:27:04,VALID,998.111,VALID,0,VALID,91.914,VALID,0,VALID,22.7469,VALID,66,VALID,1.2,
2009-10-07, 02:28:04,VALID,998.132,VALID,0,VALID,92.12,VALID,0,VALID,22.7469,VALID,55,VALID,1.51797,
2009-10-07, 02:29:04,VALID,998.149,VALID,0,VALID,92.0514,VALID,0,VALID,22.6867,VALID,42,VALID,0.858984,
2009-10-07, 02:30:04,VALID,998.116,VALID,0,VALID,92.0437,VALID,0,VALID,22.6672,VALID,349,VALID,0.835156,
2009-10-07, 02:31:04,VALID,998.176,VALID,0,VALID,92.0361,VALID,0,VALID,22.6477,VALID,317,VALID,0.858203,
2009-10-07, 02:32:04,VALID,998.173,VALID,0,VALID,92.1353,VALID,0,VALID,22.6282,VALID,312,VALID,0.724219,
2009-10-07, 02:33:04,VALID,998.152,VALID,0,VALID,92.1582,VALID,0,VALID,22.6494,VALID,310,VALID,0.689062,
2009-10-07, 02:34:04,VALID,998.143,VALID,0,VALID,92.3031,VALID,0,VALID,22.6477,VALID,317,VALID,0.654297,
2009-10-07, 02:35:04,VALID,998.152,VALID,0,VALID,92.3184,VALID,0,VALID,22.6672,VALID,340,VALID,0.599219,
2009-10-07, 02:36:04,VALID,998.117,VALID,0,VALID,92.3489,VALID,0,VALID,22.6867,VALID,340,VALID,0.712891,
2009-10-07, 02:37:04,VALID,998.115,VALID,0,VALID,92.2345,VALID,0,VALID,22.6867,VALID,340,VALID,0.554688,
2009-10-07, 02:38:04,VALID,998.108,VALID,0,VALID,92.2574,VALID,0,VALID,22.7062,VALID,356,VALID,0.655078,
2009-10-07, 02:39:04,VALID,998.071,VALID,0,VALID,92.1887,VALID,0,VALID,22.7257,VALID,30,VALID,1.04141,
2009-10-07, 02:40:04,VALID,998.091,VALID,0,VALID,92.204,VALID,0,VALID,22.7647,VALID,30,VALID,0.920703,
2009-10-07, 02:41:04,VALID,998.119,VALID,0,VALID,92.0514,VALID,0,VALID,22.7842,VALID,71,VALID,0.828125,
2009-10-07, 02:42:04,VALID,998.079,VALID,0,VALID,91.7843,VALID,0,VALID,22.8427,VALID,59,VALID,1.02227,
2009-10-07, 02:43:04,VALID,998.118,VALID,0,VALID,90.8154,VALID,0,VALID,22.7842,VALID,79,VALID,1.90547,
2009-10-07, 02:44:04,VALID,998.105,VALID,0,VALID,90.472,VALID,0,VALID,22.7257,VALID,81,VALID,2.06055,
2009-10-07, 02:45:04,VALID,998.122,VALID,0,VALID,90.7696,VALID,0,VALID,22.6672,VALID,85,VALID,1.77813,
2009-10-07, 02:46:04,VALID,998.12,VALID,0,VALID,91.0443,VALID,0,VALID,22.6689,VALID,84,VALID,1.74063,
2009-10-07, 02:47:04,VALID,998.129,VALID,0,VALID,91.1511,VALID,0,VALID,22.6884,VALID,89,VALID,1.70273,
2009-10-07, 02:48:04,VALID,998.105,VALID,0,VALID,91.2197,VALID,0,VALID,22.6477,VALID,87,VALID,1.47695,
2009-10-07, 02:49:04,VALID,998.077,VALID,0,VALID,91.2197,VALID,0,VALID,22.6672,VALID,78,VALID,1.59102,
2009-10-07, 02:50:04,VALID,998.066,VALID,0,VALID,91.4334,VALID,0,VALID,22.7062,VALID,82,VALID,1.44922,
2009-10-07, 02:51:04,VALID,998.044,VALID,0,VALID,91.09,VALID,0,VALID,22.786,VALID,83,VALID,1.70664,
2009-10-07, 02:52:04,VALID,998.112,VALID,0,VALID,90.8154,VALID,0,VALID,22.786,VALID,91,VALID,1.5793,
2009-10-07, 02:53:04,VALID,998.09,VALID,0,VALID,90.8306,VALID,0,VALID,22.7647,VALID,91,VALID,1.42891,
2009-10-07, 02:54:04,VALID,998.051,VALID,0,VALID,91.0748,VALID,0,VALID,22.7452,VALID,90,VALID,1.56211,
2009-10-07, 02:55:04,VALID,998.084,VALID,0,VALID,91.0366,VALID,0,VALID,22.7257,VALID,91,VALID,0.981641,
2009-10-07, 02:56:04,VALID,998.057,VALID,0,VALID,91.1129,VALID,0,VALID,22.7079,VALID,94,VALID,0.584766,
2009-10-07, 02:57:04,VALID,998.045,VALID,0,VALID,91.2274,VALID,0,VALID,22.6672,VALID,92,VALID,0.531641,
2009-10-07, 02:58:04,VALID,998.037,VALID,0,VALID,91.2274,VALID,0,VALID,22.6477,VALID,90,VALID,0.36875,
2009-10-07, 02:59:04,VALID,998.038,VALID,0,VALID,91.235,VALID,0,VALID,22.6282,VALID,88,VALID,0.390234,
2009-10-07, 03:00:04,VALID,998.047,VALID,0,VALID,91.3342,VALID,0,VALID,22.6087,VALID,88,VALID,0.147266,
2009-10-07, 03:01:04,VALID,998.053,VALID,0,VALID,91.3952,VALID,0,VALID,22.5892,VALID,88,VALID,0.117188,
2009-10-07, 03:02:04,VALID,998.047,VALID,0,VALID,91.5478,VALID,0,VALID,22.5892,VALID,88,VALID,0.196094,
2009-10-07, 03:03:04,VALID,998.017,VALID,0,VALID,91.708,VALID,0,VALID,22.6087,VALID,319,VALID,0.475,
2009-10-07, 03:04:04,VALID,997.999,VALID,0,VALID,91.7767,VALID,0,VALID,22.6282,VALID,334,VALID,0.687109,
2009-10-07, 03:05:04,VALID,997.992,VALID,0,VALID,92.1277,VALID,0,VALID,22.6867,VALID,305,VALID,1.31406,
2009-10-07, 03:06:04,VALID,997.957,VALID,0,VALID,91.7004,VALID,0,VALID,22.7452,VALID,322,VALID,1.1668,
2009-10-07, 03:07:04,VALID,997.967,VALID,0,VALID,91.4715,VALID,0,VALID,22.7664,VALID,349,VALID,1.29062,
2009-10-07, 03:08:04,VALID,997.958,VALID,0,VALID,91.4715,VALID,0,VALID,22.7647,VALID,1,VALID,1.75586,
2009-10-07, 03:09:04,VALID,997.99,VALID,0,VALID,91.296,VALID,0,VALID,22.8232,VALID,360,VALID,1.34766,
2009-10-07, 03:10:04,VALID,998.03,VALID,0,VALID,91.0443,VALID,0,VALID,22.8427,VALID,351,VALID,1.7375,
2009-10-07, 03:11:04,VALID,998.073,VALID,0,VALID,90.9451,VALID,0,VALID,22.864,VALID,360,VALID,1.48516,
2009-10-07, 03:12:04,VALID,998.14,VALID,0,VALID,90.884,VALID,0,VALID,22.864,VALID,9,VALID,1.5293,
2009-10-07, 03:13:04,VALID,998.1,VALID,0,VALID,90.5712,VALID,0,VALID,22.8037,VALID,17,VALID,1.46758,
2009-10-07, 03:14:04,VALID,998.109,VALID,0,VALID,90.7543,VALID,0,VALID,22.8037,VALID,10,VALID,1.79492,
2009-10-07, 03:15:04,VALID,998.085,VALID,0,VALID,90.5941,VALID,0,VALID,22.7435,VALID,17,VALID,2.12969,
2009-10-07, 03:16:04,VALID,998.074,VALID,0,VALID,90.7162,VALID,0,VALID,22.6867,VALID,28,VALID,2.0207,
2009-10-07, 03:17:04,VALID,998.057,VALID,0,VALID,91.0137,VALID,0,VALID,22.6672,VALID,28,VALID,2.13906,
2009-10-07, 03:18:04,VALID,998.043,VALID,0,VALID,91.1663,VALID,0,VALID,22.7045,VALID,22,VALID,2.00234,
2009-10-07, 03:19:04,VALID,998.024,VALID,0,VALID,90.6857,VALID,0,VALID,22.7435,VALID,17,VALID,1.46523,
2009-10-07, 03:20:04,VALID,997.992,VALID,0,VALID,90.6628,VALID,0,VALID,22.8232,VALID,9,VALID,1.35508,
2009-10-07, 03:21:04,VALID,997.993,VALID,0,VALID,90.3423,VALID,0,VALID,22.8232,VALID,38,VALID,1.11133,
2009-10-07, 03:22:04,VALID,997.955,VALID,0,VALID,90.1592,VALID,0,VALID,22.8623,VALID,45,VALID,1.06875,
2009-10-07, 03:23:04,VALID,997.912,VALID,0,VALID,90.3042,VALID,0,VALID,22.8427,VALID,43,VALID,0.991797,
2009-10-07, 03:24:04,VALID,997.907,VALID,0,VALID,90.5407,VALID,0,VALID,22.8818,VALID,45,VALID,1.19648,
2009-10-07, 03:25:04,VALID,997.867,VALID,0,VALID,90.06,VALID,0,VALID,22.9581,VALID,45,VALID,1.28789,
2009-10-07, 03:26:04,VALID,997.911,VALID,0,VALID,89.1292,VALID,0,VALID,23.0166,VALID,43,VALID,1.02344,
2009-10-07, 03:27:04,VALID,997.883,VALID,0,VALID,88.6486,VALID,0,VALID,22.9988,VALID,44,VALID,0.569141,
2009-10-07, 03:28:04,VALID,997.879,VALID,0,VALID,88.6714,VALID,0,VALID,22.8995,VALID,66,VALID,1.07109,
2009-10-07, 03:29:04,VALID,997.926,VALID,0,VALID,88.9385,VALID,0,VALID,22.8427,VALID,55,VALID,1.18555,
2009-10-07, 03:30:04,VALID,997.95,VALID,0,VALID,89.442,VALID,0,VALID,22.7842,VALID,55,VALID,1.09414,
2009-10-07, 03:31:04,VALID,997.956,VALID,0,VALID,89.4802,VALID,0,VALID,22.7257,VALID,55,VALID,0.719141,
2009-10-07, 03:32:04,VALID,997.982,VALID,0,VALID,89.5336,VALID,0,VALID,22.7079,VALID,55,VALID,0.284375,
2009-10-07, 03:33:04,VALID,998.013,VALID,0,VALID,89.6251,VALID,0,VALID,22.6494,VALID,55,VALID,0.31875,
2009-10-07, 03:34:04,VALID,998.028,VALID,0,VALID,89.6862,VALID,0,VALID,22.5892,VALID,55,VALID,0,
2009-10-07, 03:35:04,VALID,998.009,VALID,0,VALID,89.8159,VALID,0,VALID,22.5714,VALID,55,VALID,0.00429688,
2009-10-07, 03:36:04,VALID,997.98,VALID,0,VALID,90.205,VALID,0,VALID,22.5306,VALID,54,VALID,0.904688,
2009-10-07, 03:37:04,VALID,998.018,VALID,0,VALID,90.1668,VALID,0,VALID,22.5128,VALID,47,VALID,0.571875,
2009-10-07, 03:38:04,VALID,998.033,VALID,0,VALID,90.1745,VALID,0,VALID,22.4526,VALID,40,VALID,0.359766,
2009-10-07, 03:39:05,VALID,998.038,VALID,0,VALID,90.3118,VALID,0,VALID,22.3941,VALID,345,VALID,0.885938,
2009-10-07, 03:40:05,VALID,998.081,VALID,0,VALID,90.6323,VALID,0.112286,VALID,22.3534,VALID,350,VALID,0.462109,
2009-10-07, 03:41:05,VALID,998.06,VALID,0,VALID,90.9451,VALID,0,VALID,22.3534,VALID,350,VALID,0.636328,
2009-10-07, 03:42:05,VALID,998.09,VALID,0,VALID,91.0214,VALID,0,VALID,22.3551,VALID,352,VALID,0.511328,
2009-10-07, 03:43:05,VALID,998.093,VALID,0,VALID,91.029,VALID,0,VALID,22.2949,VALID,67,VALID,1.17734,
2009-10-07, 03:44:05,VALID,998.136,VALID,0,VALID,91.296,VALID,0,VALID,22.2771,VALID,79,VALID,1.31914,
2009-10-07, 03:45:05,VALID,998.15,VALID,0,VALID,91.586,VALID,0,VALID,22.2983,VALID,67,VALID,1.53555,
2009-10-07, 03:46:05,VALID,998.111,VALID,0,VALID,91.7004,VALID,0,VALID,22.3161,VALID,64,VALID,1.44023,